Wind_Speed
31 34 36 38 40 38 36 38 43 44 48 53 62 73 84 93 89 85 69 57 52 42 34 21 11 6 8 20 34 47 59 70 86 105 112 111 110 109 103 96 91 83 78 71 65 65 66
32 38 41 44 43 40 37 39 40 43 47 51 61 71 82 92 89 86 74 59 54 46 37 25 16 9 1 13 23 41 52 66 79 100 107 110 113 108 106 97 92 87 81 75 68 66 67
39 44 46 46 41 38 36 37 36 40 44 49 59 68 79 90 88 87 80 66 57 49 39 32 22 12 8 10 20 28 43 57 69 92 101 105 108 106 105 97 94 90 85 78 70 67 67
43 43 42 41 40 38 35 33 32 35 40 47 56 65 75 85 90 85 84 73 63 57 45 38 30 16 13 10 16 25 37 51 69 85 98 105 105 105 104 97 93 90 86 79 70 68 68
27 29 32 33 31 28 27 28 26 31 37 43 52 60 70 79 90 86 84 77 65 58 46 37 30 20 16 14 16 22 31 46 63 69 86 101 102 103 101 97 92 88 83 77 72 70 69
25 32 37 36 30 23 19 17 22 28 35 40 48 57 65 73 85 88 83 82 72 61 50 38 29 24 20 15 17 25 30 41 56 67 85 98 100 98 98 94 88 84 82 77 75 73 69
28 32 38 43 35 23 14 15 21 26 33 38 44 52 60 68 77 84 83 84 84 67 56 43 35 30 21 16 14 24 31 35 53 62 79 96 97 95 95 93 90 86 83 80 80 76 71
26 31 36 42 42 23 16 18 20 24 32 37 42 49 56 64 71 81 88 82 81 77 62 49 41 32 25 19 14 16 28 38 45 50 70 91 94 92 92 92 87 84 83 83 80 77 72
25 30 35 38 41 30 17 20 21 23 29 35 40 45 52 58 66 74 82 85 79 78 69 55 44 34 29 25 15 11 17 33 42 46 64 85 91 90 91 91 88 86 85 83 79 76 74
21 28 32 35 38 39 23 19 21 23 26 32 37 43 47 53 59 65 73 80 85 79 76 65 53 42 30 25 19 13 14 21 39 46 61 81 89 88 85 87 88 87 84 82 80 77 74
24 29 30 33 35 35 33 22 20 21 24 29 34 40 44 49 52 58 65 72 77 81 74 73 64 50 38 29 24 16 12 17 32 44 57 78 86 87 85 85 86 85 83 82 80 77 75
23 25 25 29 31 32 33 31 22 20 22 26 30 35 40 44 48 52 57 64 69 73 79 72 69 63 49 38 31 24 15 11 23 34 47 72 85 86 85 84 81 83 82 81 80 78 74
18 20 22 26 29 29 30 31 30 23 22 23 27 30 34 37 42 47 50 54 60 64 69 77 72 67 62 49 38 33 23 13 14 28 36 58 79 86 85 83 81 80 80 79 78 76 72
18 20 22 23 26 25 27 28 30 32 24 22 25 27 29 31 36 41 43 46 51 55 60 65 70 73 66 63 52 38 29 20 13 15 32 39 66 80 83 83 81 78 77 74 70 70 69
18 19 21 19 24 27 26 26 26 28 33 25 23 25 26 26 30 35 39 39 43 48 52 55 60 65 70 68 61 54 41 31 19 15 21 31 44 68 78 79 77 76 73 71 67 65 64
20 19 20 17 23 22 24 23 24 24 28 30 31 24 25 25 27 30 32 34 36 40 44 48 52 55 59 63 64 61 56 47 35 22 15 21 28 45 63 73 75 74 72 71 69 67 63
19 19 19 21 23 23 24 24 22 22 24 25 27 30 29 28 29 29 28 28 31 33 36 41 45 48 50 54 56 56 59 53 48 38 27 18 18 23 38 58 65 72 75 74 71 70 68
27 26 23 26 26 28 25 22 21 20 20 23 25 26 26 27 30 30 28 26 25 28 30 32 35 40 42 45 46 49 53 52 52 47 42 33 23 18 18 25 44 71 77 75 72 71 71
27 25 25 28 26 25 21 21 22 19 15 19 23 24 24 26 26 26 29 29 26 25 24 25 28 30 33 37 39 39 41 45 44 45 45 41 36 29 20 17 19 23 41 61 69 74 68
25 27 29 27 26 25 22 19 21 21 16 14 18 20 21 23 22 22 25 27 26 26 27 24 23 24 24 26 30 32 33 31 34 36 35 35 33 33 30 22 15 11 14 22 32 40 46
30 28 27 27 24 24 22 24 23 22 22 20 17 16 21 18 19 19 19 22 24 25 24 24 23 23 22 23 21 22 24 26 26 23 25 24 24 22 19 19 20 19 13 9 7 9 17
40 36 32 30 29 24 25 25 24 25 24 21 19 19 19 19 17 20 21 20 18 20 24 26 22 19 19 21 23 17 16 18 17 18 19 17 14 12 10 12 11 6 1 7 6 6 8
44 44 43 38 34 33 31 28 27 27 24 23 25 25 27 26 25 25 24 24 27 24 21 20 22 23 19 17 18 18 15 16 16 17 13 17 18 13 13 14 12 9 10 15 16 15 18
51 49 49 49 47 41 37 34 32 32 33 32 31 30 30 30 30 30 28 28 28 29 30 29 27 21 21 22 22 18 17 18 18 18 19 17 17 18 21 20 26 29 25 25 27 27 28
57 57 55 55 53 49 47 43 40 41 42 42 41 37 36 36 35 35 36 35 33 34 34 34 33 32 30 28 25 23 22 24 24 26 28 27 28 27 30 33 32 33 37 40 39 38 40
60 56 54 56 56 55 55 52 50 49 49 50 50 50 49 48 49 46 44 44 45 43 41 42 43 42 43 41 37 33 29 29 30 31 31 32 35 40 42 43 42 44 45 47 46 50 51
73 66 63 61 61 60 59 58 54 55 54 55 55 55 55 55 54 56 55 51 50 51 51 50 48 50 50 47 48 48 46 42 36 39 39 37 36 41 45 47 52 56 58 58 59 58 61
76 71 72 67 64 66 66 63 63 63 60 61 62 62 59 61 63 61 61 59 57 53 56 57 58 58 55 53 50 54 54 57 59 59 60 59 59 58 57 55 56 56 61 66 69 72 74
82 81 79 75 71 67 71 74 72 68 70 69 68 69 69 68 66 65 66 67 66 63 62 61 61 58 58 61 64 63 60 58 64 64 68 68 72 70 73 75 74 76 76 73 74 77 81
Wind_Direction
309 312 312 309 311 315 319 324 331 334 337 344 352 359 4 360 1 1 2 6 11 8 5 2 7 344 237 208 206 205 201 199 200 201 202 203 207 210 212 210 210 210 213 216 216 216 220
313 308 306 309 310 310 314 323 331 336 339 347 354 3 8 4 4 5 6 9 16 15 10 4 9 34 154 201 201 203 199 195 199 202 201 200 204 206 211 209 209 209 211 213 216 218 220
306 309 308 308 311 313 314 318 331 337 341 350 357 6 11 9 7 7 10 14 17 22 17 12 22 41 78 173 186 201 200 195 196 202 198 199 204 204 207 208 209 210 210 212 213 217 221
309 313 315 313 311 310 311 316 330 338 344 352 1 8 14 10 12 9 13 15 21 21 23 15 21 51 81 115 166 180 193 192 197 199 195 197 202 203 205 207 209 210 210 210 211 216 221
337 341 336 327 321 320 318 316 335 342 349 357 3 10 16 11 15 14 16 18 20 20 26 27 18 52 68 94 138 159 184 194 196 197 196 197 198 200 204 206 209 211 211 212 212 216 221
9 9 8 358 338 326 333 331 346 350 354 0 5 13 17 16 17 17 17 20 24 24 28 33 34 30 66 82 117 154 170 186 195 195 193 195 198 199 201 206 208 211 212 213 214 217 221
6 9 10 8 357 341 337 345 351 352 358 359 7 13 17 19 18 22 21 22 25 27 30 31 34 33 45 80 112 144 164 183 188 192 193 192 196 198 199 204 207 210 212 214 216 218 222
3 6 7 8 5 356 346 348 353 354 359 3 6 13 17 19 19 23 25 26 27 27 30 33 32 37 35 63 101 142 165 171 187 194 193 193 194 198 198 203 207 212 213 214 217 219 221
357 0 2 1 7 360 349 348 349 356 357 4 4 9 14 19 21 23 27 29 29 28 32 34 39 37 41 41 73 111 157 174 177 179 191 193 195 197 199 201 206 211 215 216 219 220 223
353 352 356 356 0 7 357 352 347 350 357 3 7 7 12 19 19 23 26 30 30 31 28 36 39 43 44 45 55 99 145 171 172 174 183 191 195 200 202 202 206 210 214 217 220 222 226
341 343 347 348 354 0 6 352 348 349 354 0 3 9 11 17 18 21 25 29 34 33 31 33 38 45 49 45 48 62 115 162 178 180 182 189 195 199 203 205 207 211 215 216 219 222 226
333 340 348 352 352 359 4 6 353 349 355 359 2 8 13 19 21 22 23 27 34 35 35 36 40 41 43 49 52 60 70 137 174 184 188 187 192 201 203 208 209 212 215 218 222 223 224
337 341 350 353 351 356 0 7 10 358 351 357 2 8 12 17 19 22 24 22 32 35 35 37 38 43 46 49 52 59 66 94 159 182 185 192 191 198 204 208 211 213 216 219 221 224 224
326 327 336 346 352 355 359 1 13 15 3 358 2 7 11 14 20 20 23 20 26 33 37 38 38 40 44 49 53 56 62 63 130 162 190 190 196 197 204 209 212 215 219 222 223 223 224
312 314 324 330 343 346 355 1 6 14 17 8 359 3 8 12 14 20 21 19 24 26 33 39 37 43 42 42 46 53 59 65 82 143 171 189 195 202 204 211 216 219 222 225 227 228 230
301 304 320 320 333 338 344 353 360 9 15 16 17 7 3 7 8 14 19 21 22 25 27 32 36 39 42 42 43 45 51 58 69 92 134 180 190 201 207 211 216 222 226 228 231 233 236
281 289 298 304 318 321 329 333 343 359 5 11 15 18 15 9 7 9 14 18 23 24 26 29 31 37 38 42 45 46 45 49 57 68 87 120 165 191 208 219 219 221 223 227 231 236 239
280 279 281 295 297 302 311 322 330 340 354 4 3 8 11 12 13 16 11 12 20 24 24 24 27 28 33 35 38 42 44 48 52 55 64 77 108 140 175 201 225 229 230 231 233 237 240
278 276 279 284 291 295 303 309 311 324 331 350 352 356 2 8 13 16 17 14 15 18 21 24 20 22 25 25 31 40 42 41 45 51 53 55 61 71 93 132 169 204 231 237 239 242 246
280 279 278 273 279 290 294 293 293 305 306 315 330 339 345 350 0 9 16 12 9 16 18 17 19 15 17 21 19 22 27 39 39 36 38 46 55 61 64 70 90 133 189 211 223 230 236
276 279 282 281 279 280 284 293 289 295 295 294 294 310 319 326 334 345 351 359 3 360 0 11 21 22 12 8 9 11 13 18 22 32 32 32 40 45 59 72 68 72 84 111 151 201 220
276 276 277 281 277 276 279 279 288 292 290 282 279 283 291 302 309 317 324 330 339 347 347 348 348 356 9 15 13 357 351 356 360 358 2 1 10 9 21 17 18 4 95 173 203 235 233
270 275 277 277 279 282 280 285 285 286 284 289 289 288 291 293 293 295 299 309 314 315 318 327 330 330 330 339 345 347 348 335 329 329 324 325 324 315 317 313 297 277 287 297 290 266 272
265 267 270 273 278 275 275 278 279 282 285 286 289 287 288 290 290 289 290 295 298 303 304 306 307 308 313 314 313 316 317 308 302 306 301 296 287 289 287 285 289 290 282 274 272 269 270
266 268 267 271 274 275 278 275 272 277 283 284 283 283 283 283 281 285 287 286 286 291 294 295 294 294 294 294 292 294 297 297 300 302 298 290 286 276 281 287 277 276 281 282 282 274 268
265 268 269 273 272 275 277 279 278 277 279 284 284 280 282 285 286 284 284 283 284 283 286 288 287 289 290 289 287 281 282 286 284 290 292 292 292 295 291 286 278 272 275 278 274 274 275
264 269 269 268 271 273 276 275 275 280 281 285 280 277 277 278 280 285 286 286 285 285 285 281 282 285 285 284 284 284 283 275 277 282 285 287 292 295 290 289 288 286 281 278 276 268 272
265 268 268 271 272 271 270 271 273 276 276 279 281 281 277 278 280 280 281 284 284 286 287 285 285 281 276 275 275 281 283 278 281 277 275 275 273 273 277 284 283 279 278 276 276 275 275
263 266 267 267 268 270 271 272 271 273 274 274 276 278 279 275 278 280 280 279 279 278 282 278 274 278 274 276 276 272 270 272 281 276 275 272 274 275 275 275 277 276 276 275 275 275 276
Height
10734 10729 10724 10720 10716 10712 10706 10699 10692 10682 10674 10662 10645 10625 10599 10571 10541 10512 10486 10465 10446 10431 10421 10412 10405 10404 10407 10410 10418 10429 10441 10461 10480 10493 10514 10550 10579 10601 10622 10649 10670 10685 10698 10713 10727 10737 10742
10730 10724 10718 10712 10708 10705 10701 10696 10690 10680 10670 10660 10643 10623 10601 10574 10544 10517 10490 10469 10451 10437 10423 10415 10410 10406 10406 10412 10419 10427 10440 10456 10471 10484 10511 10541 10564 10593 10614 10640 10660 10676 10690 10704 10719 10730 10734
10725 10719 10713 10706 10701 10698 10695 10691 10686 10679 10668 10657 10642 10624 10603 10581 10549 10524 10496 10474 10457 10446 10432 10419 10416 10411 10409 10412 10418 10429 10441 10457 10472 10478 10509 10536 10563 10584 10608 10632 10649 10667 10682 10696 10711 10722 10727
10720 10713 10706 10699 10693 10690 10688 10687 10683 10677 10668 10657 10644 10626 10606 10586 10561 10533 10506 10481 10464 10449 10438 10426 10423 10418 10416 10416 10423 10430 10442 10454 10462 10477 10502 10527 10555 10581 10602 10625 10642 10660 10676 10691 10707 10716 10721
10717 10709 10701 10694 10687 10683 10681 10681 10680 10675 10667 10658 10645 10630 10612 10592 10569 10544 10518 10493 10475 10460 10449 10437 10429 10427 10424 10425 10429 10435 10446 10457 10467 10487 10506 10529 10551 10576 10600 10618 10637 10657 10677 10691 10702 10710 10716
10716 10709 10701 10692 10683 10679 10677 10677 10677 10673 10665 10658 10647 10633 10619 10602 10579 10554 10531 10506 10487 10471 10460 10448 10440 10435 10435 10433 10436 10441 10448 10461 10474 10487 10505 10530 10554 10580 10598 10615 10637 10657 10673 10687 10695 10703 10712
10714 10708 10701 10692 10683 10677 10675 10674 10674 10671 10665 10658 10649 10637 10623 10609 10592 10572 10546 10518 10497 10482 10470 10462 10451 10445 10444 10447 10445 10447 10454 10466 10478 10492 10511 10531 10556 10579 10599 10616 10631 10648 10663 10676 10684 10694 10705
10713 10707 10701 10694 10685 10678 10676 10674 10672 10669 10664 10657 10650 10640 10627 10614 10600 10581 10559 10534 10516 10500 10485 10475 10466 10459 10454 10457 10457 10460 10464 10471 10486 10504 10521 10536 10560 10582 10599 10614 10632 10645 10656 10665 10676 10687 10699
10711 10707 10701 10695 10688 10680 10676 10674 10671 10668 10663 10657 10650 10642 10632 10619 10605 10590 10573 10556 10537 10519 10504 10489 10480 10473 10469 10467 10468 10472 10476 10481 10490 10506 10524 10542 10564 10579 10593 10612 10625 10638 10649 10660 10672 10682 10692
10711 10706 10701 10696 10690 10683 10677 10673 10670 10668 10664 10658 10651 10643 10635 10624 10614 10601 10586 10569 10553 10537 10521 10507 10494 10485 10481 10480 10480 10481 10486 10492 10500 10509 10520 10542 10561 10580 10595 10609 10619 10632 10643 10656 10667 10677 10687
10709 10705 10701 10696 10691 10685 10679 10674 10669 10667 10664 10659 10653 10646 10638 10629 10621 10609 10599 10585 10570 10556 10544 10525 10511 10502 10497 10492 10492 10492 10493 10499 10507 10514 10524 10542 10562 10577 10591 10605 10618 10630 10640 10649 10659 10671 10679
10708 10704 10701 10697 10692 10687 10681 10675 10670 10666 10663 10659 10655 10649 10642 10634 10627 10617 10607 10598 10586 10575 10563 10548 10535 10520 10512 10505 10503 10502 10505 10507 10514 10523 10531 10539 10555 10575 10588 10601 10615 10626 10635 10645 10654 10664 10673
10706 10703 10701 10697 10692 10688 10683 10678 10672 10666 10663 10659 10656 10651 10646 10639 10632 10624 10617 10610 10600 10590 10582 10568 10556 10543 10532 10521 10515 10511 10514 10517 10522 10526 10536 10546 10556 10569 10583 10596 10608 10618 10629 10639 10650 10660 10673
10705 10702 10700 10697 10693 10689 10684 10680 10675 10669 10664 10660 10656 10652 10648 10643 10637 10630 10624 10619 10611 10604 10594 10585 10576 10565 10553 10545 10535 10527 10525 10525 10527 10533 10541 10551 10563 10571 10582 10593 10603 10615 10627 10639 10649 10659 10668
10702 10700 10699 10696 10693 10690 10686 10681 10676 10672 10666 10661 10658 10654 10650 10646 10641 10636 10630 10625 10619 10613 10607 10600 10591 10582 10574 10565 10557 10550 10542 10536 10536 10540 10546 10556 10564 10576 10585 10596 10606 10617 10626 10636 10645 10652 10659
10699 10698 10696 10694 10692 10689 10686 10682 10678 10673 10668 10663 10659 10656 10652 10649 10644 10639 10635 10630 10625 10620 10614 10609 10604 10596 10589 10582 10576 10568 10562 10556 10550 10550 10555 10562 10570 10578 10587 10596 10606 10615 10624 10633 10641 10648 10657
10694 10694 10693 10692 10689 10688 10686 10682 10679 10675 10671 10666 10661 10658 10654 10650 10646 10642 10638 10634 10630 10625 10621 10616 10610 10607 10602 10596 10590 10585 10580 10575 10571 10567 10566 10570 10577 10584 10591 10599 10606 10612 10621 10629 10636 10645 10651
10689 10688 10688 10687 10685 10684 10683 10681 10679 10676 10672 10668 10664 10661 10657 10653 10650 10645 10641 10637 10634 10630 10626 10623 10620 10615 10611 10609 10604 10600 10595 10591 10589 10586 10585 10584 10585 10588 10593 10599 10607 10614 10620 10627 10633 10641 10646
10682 10682 10682 10681 10680 10679 10679 10678 10676 10674 10672 10669 10665 10662 10659 10655 10652 10648 10645 10641 10638 10635 10631 10628 10625 10623 10620 10617 10614 10612 10608 10606 10602 10599 10598 10598 10597 10598 10599 10601 10605 10612 10620 10626 10631 10637 10644
10675 10675 10675 10675 10674 10674 10673 10672 10671 10669 10668 10667 10665 10662 10658 10656 10653 10650 10647 10644 10641 10638 10635 10633 10631 10628 10626 10624 10622 10620 10619 10617 10615 10614 10611 10609 10608 10608 10610 10611 10612 10615 10618 10621 10625 10628 10629
10667 10668 10668 10668 10668 10668 10667 10667 10666 10665 10664 10663 10661 10660 10658 10655 10652 10650 10648 10647 10644 10641 10639 10637 10634 10633 10630 10628 10627 10625 10625 10625 10624 10624 10623 10623 10623 10622 10620 10620 10621 10621 10622 10624 10625 10626 10627
10658 10660 10661 10661 10661 10661 10660 10661 10660 10660 10659 10658 10657 10656 10655 10654 10651 10649 10647 10645 10643 10642 10640 10638 10636 10634 10632 10632 10630 10629 10628 10628 10628 10629 10629 10629 10629 10629 10629 10628 10628 10627 10628 10628 10629 10629 10629
10649 10650 10652 10653 10653 10654 10653 10654 10654 10653 10653 10652 10651 10650 10650 10650 10648 10646 10644 10643 10642 10640 10639 10636 10634 10633 10632 10631 10630 10630 10628 10628 10628 10627 10628 10628 10629 10629 10630 10629 10628 10628 10628 10626 10627 10626 10625
10638 10640 10642 10643 10644 10644 10645 10646 10647 10646 10646 10645 10645 10645 10644 10643 10642 10641 10640 10639 10637 10635 10634 10633 10632 10631 10629 10628 10628 10627 10627 10627 10625 10624 10624 10623 10624 10624 10623 10624 10623 10621 10623 10622 10620 10620 10618
10625 10628 10630 10632 10633 10634 10635 10636 10637 10637 10637 10637 10637 10636 10635 10634 10634 10634 10633 10631 10630 10629 10628 10626 10625 10624 10622 10622 10621 10619 10620 10620 10620 10621 10620 10618 10616 10615 10615 10614 10614 10613 10610 10608 10608 10608 10606
10611 10614 10617 10619 10621 10622 10623 10625 10627 10625 10625 10626 10626 10626 10626 10625 10622 10623 10624 10622 10621 10621 10620 10618 10617 10617 10616 10615 10613 10611 10610 10610 10609 10607 10608 10608 10609 10608 10607 10604 10602 10599 10599 10598 10596 10594 10590
10595 10598 10601 10604 10606 10607 10609 10610 10612 10612 10611 10612 10612 10612 10613 10613 10611 10610 10609 10611 10611 10611 10610 10607 10607 10606 10605 10604 10604 10604 10603 10598 10596 10595 10593 10592 10592 10591 10591 10590 10587 10585 10582 10580 10578 10577 10572
10576 10581 10583 10586 10589 10591 10592 10594 10596 10596 10596 10597 10597 10597 10598 10597 10597 10596 10597 10597 10597 10597 10596 10595 10594 10592 10593 10591 10590 10589 10589 10586 10583 10581 10579 10577 10575 10572 10571 10570 10569 10565 10565 10563 10559 10554 10550
10557 10560 10565 10568 10570 10574 10575 10576 10577 10579 10580 10579 10579 10580 10582 10582 10581 10581 10581 10580 10581 10580 10579 10578 10577 10576 10575 10574 10574 10574 10573 10571 10567 10565 10558 10558 10552 10553 10551 10547 10543 10546 10546 10540 10535 10532 10528